GW3809 Weather Reports


Display with metric or nautical units.
time (UTC)temp
F
wind
direction
speed
MPH
gust
MPH
rain 1hr
in
rain 24hr
in
rain mn
in
humidity
%
barometer
mb
20260906224929 98 132 12.0 17.0 0.00 0.00 0.00 45 1010.3
20260906224425 98 132 12.0 19.0 0.00 0.00 0.00 44 1010.3
20260906223921 98 133 10.0 19.0 0.00 0.00 0.00 44 1010.4
20260906223417 99 130 7.0 10.0 0.00 0.00 0.00 43 1010.3
20260906222915 98 149 7.0 8.0 0.00 0.00 0.00 44 1010.2
20260906222415 98 152 5.0 9.0 0.00 0.00 0.00 45 1010.2
20260906221912 98 123 4.0 8.0 0.00 0.00 0.00 45 1010.5
20260906221411 98 144 10.0 16.0 0.00 0.00 0.00 45 1010.3
20260906220907 97 154 5.0 6.0 0.00 0.00 0.00 48 1010.3
20260906220402 96 80 2.0 7.0 0.00 0.00 0.00 49 1010.4
20260906215901 96 134 4.0 6.0 0.00 0.00 0.00 51 1010.5
20260906215356 96 142 6.0 12.0 0.00 0.00 0.00 50 1010.5
20260906214854 96 144 6.0 11.0 0.00 0.00 0.00 49 1010.4
20260906214354 96 114 6.0 11.0 0.00 0.00 0.00 50 1010.5
20260906213853 95 137 8.0 13.0 0.00 0.00 0.00 51 1010.4
20260906213348 95 161 6.0 12.0 0.00 0.00 0.00 52 1010.7
20260906212845 95 128 4.0 10.0 0.00 0.00 0.00 51 1010.8
20260906212341 95 154 5.0 11.0 0.00 0.00 0.00 49 1010.9
20260906211840 95 133 6.0 12.0 0.00 0.00 0.00 50 1011.1
20260906211335 95 145 10.0 11.0 0.00 0.00 0.00 51 1010.9
20260906210830 95 141 11.0 16.0 0.00 0.00 0.00 51 1011.2
20260906210325 95 132 8.0 14.0 0.00 0.00 0.00 51 1011.2
20260906205820 96 137 10.0 16.0 0.00 0.00 0.00 51 1011.3
20260906205317 96 141 7.0 14.0 0.00 0.00 0.00 51 1011.2
20260906204812 96 132 8.0 12.0 0.00 0.00 0.00 50 1011.0
20260906204311 96 144 12.0 18.0 0.00 0.00 0.00 48 1011.3
20260906203810 97 133 6.0 14.0 0.00 0.00 0.00 48 1011.3
20260906203306 97 154 6.0 14.0 0.00 0.00 0.00 47 1011.2
20260906202803 98 141 8.0 13.0 0.00 0.00 0.00 44 1011.4
20260906202306 98 142 7.0 11.0 0.00 0.00 0.00 43 1011.3
20260906201756 98 137 6.0 12.0 0.00 0.00 0.00 43 1011.4
20260906201250 99 118 4.0 10.0 0.00 0.00 0.00 42 1011.5
20260906200747 99 172 9.0 13.0 0.00 0.00 0.00 43 1011.4
20260906200242 99 158 6.0 10.0 0.00 0.00 0.00 43 1011.6
20260906195737 99 120 7.0 11.0 0.00 0.00 0.00 42 1011.6
20260906195234 99 151 8.0 12.0 0.00 0.00 0.00 42 1011.5
20260906194730 98 169 3.0 8.0 0.00 0.00 0.00 43 1011.8
20260906194225 99 178 2.0 6.0 0.00 0.00 0.00 42 1011.7
20260906193719 100 214 4.0 6.0 0.00 0.00 0.00 41 1011.9
20260906193214 100 159 5.0 12.0 0.00 0.00 0.00 43 1011.8
20260906192710 100 220 4.0 9.0 0.00 0.00 0.00 43 1011.9
20260906192209 100 204 6.0 10.0 0.00 0.00 0.00 42 1012.0
20260906191704 99 210 4.0 7.0 0.00 0.00 0.00 43 1012.2
20260906191203 99 199 6.0 12.0 0.00 0.00 0.00 43 1012.4
20260906190658 99 182 5.0 10.0 0.00 0.00 0.00 45 1012.4
20260906190153 99 211 3.0 9.0 0.00 0.00 0.00 45 1012.6
20260906185652 98 189 3.0 11.0 0.00 0.00 0.00 44 1012.6
20260906185151 98 199 6.0 8.0 0.00 0.00 0.00 48 1012.7
20260906184646 97 215 5.0 8.0 0.00 0.00 0.00 48 1012.7
20260906184142 97 207 6.0 7.0 0.00 0.00 0.00 49 1012.8
20260906183637 96 161 5.0 7.0 0.00 0.00 0.00 48 1012.9
20260906183133 96 187 4.0 9.0 0.00 0.00 0.00 48 1013.1
20260906182632 97 150 5.0 8.0 0.00 0.00 0.00 49 1013.0
20260906182130 97 177 5.0 9.0 0.00 0.00 0.00 49 1013.2
20260906181629 96 148 5.0 7.0 0.00 0.00 0.00 51 1013.2
20260906181125 96 218 2.0 8.0 0.00 0.00 0.00 50 1013.5
20260906180620 98 167 8.0 11.0 0.00 0.00 0.00 49 1013.5
20260906180115 98 218 3.0 9.0 0.00 0.00 0.00 49 1013.4
20260906175613 97 165 3.0 8.0 0.00 0.00 0.00 49 1013.5
20260906175109 97 193 6.0 14.0 0.00 0.00 0.00 51 1013.7
20260906174607 96 185 6.0 6.0 0.00 0.00 0.00 51 1013.8
20260906174102 96 184 7.0 11.0 0.00 0.00 0.00 52 1013.9
20260906173556 95 158 6.0 14.0 0.00 0.00 0.00 52 1013.9
20260906173052 96 180 4.0 14.0 0.00 0.00 0.00 52 1014.2
20260906172546 96 192 6.0 9.0 0.00 0.00 0.00 53 1014.1
20260906172042 95 203 2.0 6.0 0.00 0.00 0.00 54 1014.1
20260906171542 95 192 3.0 7.0 0.00 0.00 0.00 53 1014.3
20260906171037 95 193 5.0 12.0 0.00 0.00 0.00 54 1014.4
20260906170533 94 157 7.0 15.0 0.00 0.00 0.00 54 1014.4
20260906170032 94 148 10.0 12.0 0.00 0.00 0.00 55 1014.4
20260906165529 94 208 5.0 12.0 0.00 0.00 0.00 54 1014.4
20260906165024 93 177 3.0 7.0 0.00 0.00 0.00 58 1014.4
20260906164523 93 138 9.0 14.0 0.00 0.00 0.00 59 1014.4
20260906164019 93 166 9.0 12.0 0.00 0.00 0.00 59 1014.5
20260906163514 93 183 4.0 9.0 0.00 0.00 0.00 60 1014.5
20260906163010 93 193 6.0 14.0 0.00 0.00 0.00 60 1014.6
20260906162507 93 208 5.0 11.0 0.00 0.00 0.00 59 1014.5
20260906162001 92 215 8.0 11.0 0.00 0.00 0.00 61 1014.5
20260906161456 92 212 7.0 10.0 0.00 0.00 0.00 61 1014.7
20260906160954 91 228 10.0 13.0 0.00 0.00 0.00 63 1014.6
20260906160448 91 166 6.0 10.0 0.00 0.00 0.00 63 1014.6
20260906155947 91 194 6.0 11.0 0.00 0.00 0.00 64 1014.6
20260906155445 91 194 6.0 8.0 0.00 0.00 0.00 66 1014.6
20260906154942 91 193 7.0 11.0 0.00 0.00 0.00 66 1014.7
20260906154437 91 202 5.0 10.0 0.00 0.00 0.00 67 1014.5
20260906153935 90 174 6.0 10.0 0.00 0.00 0.00 68 1014.6
20260906153434 90 178 6.0 14.0 0.00 0.00 0.00 68 1014.6
20260906152929 89 192 7.0 10.0 0.00 0.00 0.00 70 1014.7
20260906152424 88 185 5.0 9.0 0.00 0.00 0.00 72 1014.6
20260906151923 87 176 5.0 8.0 0.00 0.00 0.00 73 1014.6
20260906151419 87 177 3.0 11.0 0.00 0.00 0.00 74 1014.4
20260906150914 87 193 6.0 11.0 0.00 0.00 0.00 74 1014.4
20260906150409 87 162 5.0 8.0 0.00 0.00 0.00 74 1014.3
20260906145909 87 219 4.0 9.0 0.00 0.00 0.00 75 1014.5
20260906145407 87 190 5.0 7.0 0.00 0.00 0.00 75 1014.5
20260906144902 86 208 4.0 11.0 0.00 0.00 0.00 75 1014.2
20260906144357 86 184 4.0 8.0 0.00 0.00 0.00 76 1014.4
20260906143852 86 186 7.0 8.0 0.00 0.00 0.00 77 1014.4
20260906143343 86 168 5.0 8.0 0.00 0.00 0.00 78 1014.4
20260906142838 86 189 7.0 8.0 0.00 0.00 0.00 78 1014.4
20260906142332 86 160 3.0 5.0 0.00 0.00 0.00 80 1014.4
20260906141826 85 170 4.0 9.0 0.00 0.00 0.00 80 1014.4
20260906141316 85 142 6.0 11.0 0.00 0.00 0.00 81 1014.3
20260906140814 84 193 4.0 9.0 0.00 0.00 0.00 81 1014.3
20260906140309 84 176 3.0 5.0 0.00 0.00 0.00 83 1014.3
20260906135807 84 189 4.0 6.0 0.00 0.00 0.00 84 1014.0
20260906135305 83 140 6.0 7.0 0.00 0.00 0.00 85 1014.1
20260906134757 82 168 1.0 3.0 0.00 0.00 0.00 86 1014.2
20260906134252 81 358 0.0 2.0 0.00 0.00 0.00 86 1014.0
20260906133748 81 64 0.0 2.0 0.00 0.00 0.00 87 1014.2
20260906133243 80 329 0.0 2.0 0.00 0.00 0.00 88 1014.0
20260906132738 79 197 2.0 2.0 0.00 0.00 0.00 88 1014.0
20260906132233 78 109 2.0 3.0 0.00 0.00 0.00 89 1014.1
20260906131729 78 91 2.0 2.0 0.00 0.00 0.00 90 1014.0
20260906131224 78 267 0.0 2.0 0.00 0.00 0.00 90 1014.1
20260906130720 78 295 2.0 2.0 0.00 0.00 0.00 90 1014.0
20260906130214 78 331 0.0 2.0 0.00 0.00 0.00 90 1013.8
20260906125713 78 69 1.0 1.0 0.00 0.00 0.00 90 1013.7
20260906125211 78 32 1.0 2.0 0.00 0.00 0.00 90 1013.6
20260906124707 77 125 0.0 2.0 0.00 0.00 0.00 90 1013.8
20260906124202 77 146 0.0 0.0 0.00 0.00 0.00 89 1013.5
20260906123700 77 341 0.0 2.0 0.00 0.00 0.00 89 1013.4
20260906123156 77 307 0.0 1.0 0.00 0.00 0.00 89 1013.5
20260906122655 77 35 0.0 1.0 0.00 0.00 0.00 89 1013.2
20260906122151 77 267 1.0 1.0 0.00 0.00 0.00 89 1013.4
20260906121647 77 117 0.0 1.0 0.00 0.00 0.00 88 1013.3
20260906121143 77 127 0.0 1.0 0.00 0.00 0.00 88 1013.2
20260906120639 77 246 0.0 1.0 0.00 0.00 0.00 88 1013.1
20260906120136 78 47 0.0 2.0 0.00 0.00 0.00 87 1013.0
20260906115631 78 133 0.0 0.0 0.00 0.00 0.00 87 1013.0
20260906115126 79 316 2.0 2.0 0.00 0.00 0.00 87 1013.0
20260906114619 80 324 1.0 3.0 0.00 0.00 0.00 88 1012.9
20260906114115 80 60 0.0 0.0 0.00 0.00 0.00 88 1013.0
20260906113615 80 47 0.0 2.0 0.00 0.00 0.00 88 1012.9
20260906113109 80 331 0.0 1.0 0.00 0.00 0.00 88 1012.6
20260906112609 80 191 0.0 1.0 0.00 0.00 0.00 88 1012.6
20260906112106 80 164 0.0 2.0 0.00 0.00 0.00 88 1012.6
20260906111605 80 158 0.0 1.0 0.00 0.00 0.00 88 1012.3
20260906111100 80 117 0.0 2.0 0.00 0.00 0.00 88 1012.6
20260906110600 80 67 0.0 2.0 0.00 0.00 0.00 88 1012.4
20260906110059 80 351 1.0 2.0 0.00 0.00 0.00 88 1012.4
20260906105555 80 115 1.0 3.0 0.00 0.00 0.00 88 1012.5
20260906105051 80 35 0.0 1.0 0.00 0.00 0.00 88 1012.2
20260906104550 80 175 0.0 2.0 0.00 0.00 0.00 88 1012.3
20260906104044 80 254 0.0 1.0 0.00 0.00 0.00 88 1012.4
20260906103542 80 100 0.0 2.0 0.00 0.00 0.00 88 1012.4
20260906103037 80 163 0.0 1.0 0.00 0.00 0.00 88 1012.5
20260906102531 80 10 2.0 2.0 0.00 0.00 0.00 88 1012.4
20260906102026 79 130 3.0 3.0 0.00 0.00 0.00 89 1012.1
20260906101521 79 139 1.0 2.0 0.00 0.00 0.00 89 1012.1
20260906101016 78 154 2.0 4.0 0.00 0.00 0.00 89 1012.0
20260906100512 77 48 0.0 1.0 0.00 0.00 0.00 87 1011.9
20260906100012 77 143 0.0 1.0 0.00 0.00 0.00 87 1011.8
20260906095506 77 87 0.0 1.0 0.00 0.00 0.00 86 1012.1
20260906095002 77 8 0.0 2.0 0.00 0.00 0.00 86 1012.2
20260906094500 77 137 0.0 1.0 0.00 0.00 0.00 86 1012.2
20260906093957 77 267 0.0 1.0 0.00 0.00 0.00 86 1011.9
20260906093453 77 313 0.0 1.0 0.00 0.00 0.00 85 1012.1
20260906092948 77 105 0.0 0.0 0.00 0.00 0.00 85 1012.1
20260906092448 77 228 0.0 1.0 0.00 0.00 0.00 85 1012.1
20260906091943 77 267 0.0 1.0 0.00 0.00 0.00 85 1011.9
20260906091439 77 243 2.0 2.0 0.00 0.00 0.00 85 1012.1
20260906090935 77 337 0.0 1.0 0.00 0.00 0.00 85 1012.3
20260906090430 77 237 1.0 2.0 0.00 0.00 0.00 84 1012.3
20260906085924 77 87 0.0 1.0 0.00 0.00 0.00 84 1012.2
20260906085423 77 54 0.0 2.0 0.00 0.00 0.00 84 1012.3
20260906084922 77 20 0.0 2.0 0.00 0.00 0.00 84 1012.2
20260906084418 77 17 0.0 0.0 0.00 0.00 0.00 84 1012.2
20260906083917 77 21 0.0 1.0 0.00 0.00 0.00 84 1012.2
20260906083413 77 13 0.0 1.0 0.00 0.00 0.00 84 1012.3
20260906082912 77 350 0.0 2.0 0.00 0.00 0.00 84 1012.6
20260906082407 77 35 0.0 0.0 0.00 0.00 0.00 84 1012.5
20260906081903 77 48 0.0 2.0 0.00 0.00 0.00 83 1012.6
20260906081358 77 60 0.0 0.0 0.00 0.00 0.00 82 1012.7
20260906080854 77 48 0.0 0.0 0.00 0.00 0.00 82 1012.8
20260906080351 77 215 0.0 0.0 0.00 0.00 0.00 82 1012.8
20260906075850 77 324 0.0 0.0 0.00 0.00 0.00 82 1012.9
20260906075350 77 115 0.0 0.0 0.00 0.00 0.00 82 1013.1
20260906074846 77 87 1.0 2.0 0.00 0.00 0.00 82 1012.8
20260906074340 77 115 0.0 0.0 0.00 0.00 0.00 82 1013.3
20260906073839 77 87 0.0 2.0 0.00 0.00 0.00 82 1013.1
20260906073334 77 257 1.0 1.0 0.00 0.00 0.00 82 1013.3
20260906072831 77 87 0.0 0.0 0.00 0.00 0.00 82 1013.6
20260906072326 77 111 0.0 1.0 0.00 0.00 0.00 82 1013.4
20260906071822 77 285 0.0 0.0 0.00 0.00 0.00 82 1013.5
20260906071321 77 285 0.0 1.0 0.00 0.00 0.00 83 1013.5
20260906070818 77 100 0.0 0.0 0.00 0.00 0.00 83 1013.7
20260906070314 77 48 0.0 2.0 0.00 0.00 0.00 83 1013.8
20260906065814 77 313 0.0 2.0 0.00 0.00 0.00 83 1013.7
20260906065309 77 286 1.0 1.0 0.00 0.00 0.00 83 1013.7
20260906064804 77 129 0.0 0.0 0.00 0.00 0.00 83 1013.9
20260906064300 77 129 0.0 1.0 0.00 0.00 0.00 83 1013.8
20260906063755 77 146 0.0 2.0 0.00 0.00 0.00 82 1014.0
20260906063250 78 100 2.0 3.0 0.00 0.00 0.00 82 1014.0
20260906062745 78 101 0.0 2.0 0.00 0.00 0.00 82 1014.1
20260906062244 78 349 2.0 3.0 0.00 0.00 0.00 82 1014.3
20260906061740 78 4 2.0 3.0 0.00 0.00 0.00 82 1014.0
20260906061237 78 328 1.0 2.0 0.00 0.00 0.00 82 1014.3
20260906060731 78 201 0.0 3.0 0.00 0.00 0.00 83 1014.3
20260906060229 79 290 0.0 1.0 0.00 0.00 0.00 83 1014.0
20260906055725 79 35 0.0 0.0 0.00 0.00 0.00 83 1013.9
20260906055220 79 335 0.0 1.0 0.00 0.00 0.00 83 1013.9
20260906054715 78 115 0.0 1.0 0.00 0.00 0.00 83 1013.9
20260906054215 78 60 0.0 1.0 0.00 0.00 0.00 83 1013.9
20260906053712 78 233 0.0 0.0 0.00 0.00 0.00 83 1014.2
20260906053207 78 240 0.0 1.0 0.00 0.00 0.00 84 1014.2
20260906052702 78 282 0.0 2.0 0.00 0.00 0.00 84 1014.3
20260906052159 78 121 2.0 3.0 0.00 0.00 0.00 84 1014.4
20260906051655 78 87 1.0 2.0 0.00 0.00 0.00 84 1014.4
20260906051154 78 306 1.0 1.0 0.00 0.00 0.00 84 1014.7
20260906050650 78 117 0.0 0.0 0.00 0.00 0.00 83 1014.5
20260906050145 78 228 0.0 0.0 0.00 0.00 0.00 83 1014.6
20260906045643 78 228 0.0 0.0 0.00 0.07 0.07 83 1014.8
20260906045139 78 122 0.0 1.0 0.00 0.07 0.07 83 1014.4
20260906044635 78 60 0.0 1.0 0.00 0.07 0.07 82 1014.6
20260906044130 78 87 0.0 1.0 0.00 0.07 0.07 82 1014.6
20260906043626 79 357 0.0 1.0 0.00 0.07 0.07 82 1014.5
20260906043121 79 240 0.0 0.0 0.00 0.07 0.07 80 1014.3
20260906042621 79 313 1.0 1.0 0.00 0.07 0.07 80 1014.4
20260906042115 79 155 0.0 1.0 0.00 0.07 0.07 80 1014.4
20260906041611 79 123 1.0 4.0 0.00 0.07 0.07 80 1014.3
20260906041106 78 154 2.0 2.0 0.00 0.07 0.07 81 1014.1
20260906040601 78 229 0.0 1.0 0.00 0.07 0.07 81 1014.2
20260906040051 78 75 0.0 0.0 0.00 0.07 0.07 80 1014.0
20260906035546 78 144 1.0 1.0 0.00 0.07 0.07 80 1013.9
20260906035042 78 238 0.0 1.0 0.00 0.07 0.07 80 1013.8
20260906034542 78 267 0.0 2.0 0.00 0.07 0.07 81 1013.9
20260906034037 77 292 0.0 2.0 0.00 0.07 0.07 82 1014.0
20260906033532 77 229 1.0 3.0 0.00 0.07 0.07 82 1014.1
20260906033022 77 281 0.0 1.0 0.00 0.07 0.07 83 1014.1
20260906032518 77 41 0.0 2.0 0.00 0.07 0.07 81 1014.1
20260906032013 77 83 2.0 3.0 0.00 0.07 0.07 82 1014.1
20260906031508 76 79 2.0 3.0 0.00 0.07 0.07 83 1014.0
20260906031003 76 288 0.0 2.0 0.00 0.07 0.07 84 1014.3
20260906030458 76 319 0.0 2.0 0.00 0.07 0.07 84 1014.2
20260906025958 75 61 0.0 2.0 0.00 0.07 0.07 84 1014.3
20260906025457 75 212 2.0 3.0 0.00 0.07 0.07 84 1014.4
20260906024955 75 237 3.0 5.0 0.00 0.07 0.07 84 1014.6
20260906024451 75 212 4.0 9.0 0.00 0.07 0.07 84 1014.5
20260906023950 75 248 4.0 7.0 0.07 0.07 0.07 83 1014.6
20260906023447 75 216 5.0 9.0 0.35 0.07 0.07 82 1014.4
20260906022946 76 237 8.0 14.0 0.35 0.06 0.06 79 1014.4
20260906022442 78 221 8.0 18.0 0.07 0.01 0.01 74 1014.4
20260906021937 80 222 9.0 19.0 0.00 0.00 0.00 69 1014.7
20260906021432 80 225 7.0 20.0 0.00 0.00 0.00 67 1014.5
20260906020926 81 240 7.0 21.0 0.00 0.00 0.00 68 1014.4
20260906020421 83 236 11.0 20.0 0.00 0.00 0.00 68 1014.2
20260906015915 86 223 16.0 22.0 0.00 0.00 0.00 63 1014.2
20260906015414 90 205 4.0 8.0 0.00 0.00 0.00 64 1013.7
20260906014909 90 182 7.0 14.0 0.00 0.00 0.00 64 1013.4
20260906014408 90 169 5.0 12.0 0.00 0.00 0.00 64 1013.2
20260906013905 90 160 7.0 12.0 0.00 0.00 0.00 64 1013.0
20260906013400 90 155 9.0 15.0 0.00 0.00 0.00 63 1012.7
20260906012855 90 152 8.0 15.0 0.00 0.00 0.00 63 1012.7
20260906012350 90 169 8.0 15.0 0.00 0.00 0.00 62 1012.4
20260906011850 91 150 9.0 12.0 0.00 0.00 0.00 61 1012.4
20260906011344 91 141 12.0 17.0 0.00 0.00 0.00 61 1012.2
20260906010840 91 140 13.0 17.0 0.00 0.00 0.00 60 1012.1
20260906010336 91 134 6.0 19.0 0.00 0.00 0.00 60 1012.0
20260906005832 91 175 7.0 17.0 0.00 0.00 0.00 58 1011.8
20260906005331 92 134 9.0 12.0 0.00 0.00 0.00 58 1011.6
20260906004830 92 138 11.0 15.0 0.00 0.00 0.00 57 1011.7
20260906004330 92 158 9.0 14.0 0.00 0.00 0.00 57 1011.6
20260906003825 93 152 9.0 16.0 0.00 0.00 0.00 56 1011.4
20260906003320 93 137 10.0 20.0 0.00 0.00 0.00 56 1011.2
20260906002816 93 145 9.0 15.0 0.00 0.00 0.00 55 1011.3
20260906002315 93 144 11.0 23.0 0.00 0.00 0.00 55 1011.1
20260906001811 94 148 9.0 15.0 0.00 0.00 0.00 53 1011.0
20260906001307 94 160 9.0 17.0 0.00 0.00 0.00 52 1010.9
20260906000807 94 139 9.0 16.0 0.00 0.00 0.00 52 1010.8
20260906000303 95 146 10.0 17.0 0.00 0.00 0.00 51 1010.6
20260905235756 95 159 7.0 14.0 0.00 0.00 0.00 50 1010.5
20260905235256 95 173 6.0 16.0 0.00 0.00 0.00 50 1010.3
20260905234751 96 161 8.0 15.0 0.00 0.00 0.00 49 1010.2
20260905234246 96 136 12.0 15.0 0.00 0.00 0.00 49 1009.9
20260905233742 96 147 10.0 19.0 0.00 0.00 0.00 49 1009.9
20260905233241 96 143 10.0 15.0 0.00 0.00 0.00 49 1010.0
20260905232736 96 156 9.0 14.0 0.00 0.00 0.00 48 1009.9
20260905232232 96 142 13.0 17.0 0.00 0.00 0.00 48 1009.9
20260905231727 97 154 8.0 16.0 0.00 0.00 0.00 48 1009.6
20260905231223 97 148 8.0 16.0 0.00 0.00 0.00 47 1009.7
20260905230719 97 125 9.0 15.0 0.00 0.00 0.00 46 1009.8
20260905230216 97 179 5.0 12.0 0.00 0.00 0.00 46 1009.9
20260905225716 98 134 7.0 16.0 0.00 0.00 0.00 45 1009.7